Вернуться в каталог

STARLINK-30372

АктивенСвязьVLEO
NORAD 57789·PAYLOAD·🇺🇸 United States

Запущен Sep 4, 2023 с Cape Canaveral Space Force Station

Loading…

Ближайшие Пролёты (ближайшие 24 часа)

TLE

СвежийSource: CelesTrak SupGP

Эпоха: Sep 14, 2026, 21:23 UTC

1 57789C 23134U   26257.89145833  .00008969  00000+0  32491-3 0  2572
2 57789  43.0001  89.8626 0001350 271.0826 112.0256 15.27568793    11

Отслеживайте STARLINK-30372 в реальном времени с AllMySat

Download on the App Store